Waarnemingen

Advertentie
Mijn weer
Arkona, Duitsland (10091): temperatuur & dauwpunt: 12.12.2017 12:00:00 - 18.12.2017 12:00:00 (CET)Arkona, Duitsland (10091): temperatuur 5cm & temperatuur -5cm: 12.12.2017 12:00:00 - 18.12.2017 12:00:00 (CET)Arkona, Duitsland (10091): temperatuur -20cm & temperatuur -100cm: 12.12.2017 12:00:00 - 18.12.2017 12:00:00 (CET)Arkona, Duitsland (10091): water temperatuur: 12.12.2017 12:00:00 - 18.12.2017 12:00:00 (CET)Arkona, Duitsland (10091): windsnelheid & windstoten: 12.12.2017 12:00:00 - 18.12.2017 12:00:00 (CET)Arkona, Duitsland (10091): windrichting: 12.12.2017 12:00:00 - 18.12.2017 12:00:00 (CET)Arkona, Duitsland (10091): luchtdruk: 12.12.2017 12:00:00 - 18.12.2017 12:00:00 (CET)Arkona, Duitsland (10091): zicht: 12.12.2017 12:00:00 - 18.12.2017 12:00:00 (CET)Arkona, Duitsland (10091): Zonneschijnduur: 12.12.2017 12:00:00 - 18.12.2017 12:00:00 (CET)Arkona, Duitsland (10091): neerslag: 12.12.2017 12:00:00 - 18.12.2017 12:00:00 (CET)
Datum & Tijd tt [°C] td [°C] tt 5cm [°C] tt -5cm [°C] tt -20cm [°C] tt -100cm [°C] tw [°C] ff [km/u] ff [kn] fx [km/u] fx [kn] dd ppp [hPa] vv [km] sd [min] rr [mm]
18.12.2017 12:00:00 - - - - - - - - - - - - - - - -
18.12.2017 11:00:00 1,2 -2,1 1,0 0,3 1,6 6,3 6,2 25 14 29 16 Z 1025,4 41 0 0,0
18.12.2017 10:00:00 1,1 -2,1 0,7 0,2 1,7 6,3 6,2 23 13 30 16 Z 1025,3 39 34 0,0
18.12.2017 09:00:00 0,5 -2,5 -0,4 0,2 1,7 6,3 6,2 23 12 28 15 ZZW 1024,5 40 0 0,0
18.12.2017 08:00:00 0,7 -1,8 0,2 0,3 1,7 6,3 6,2 19 10 29 16 ZZW 1023,4 34 0 0,0
18.12.2017 07:00:00 1,0 -2,0 0,6 0,3 1,7 6,3 6,1 21 11 31 17 ZZW 1022,8 42 0 0,0
18.12.2017 06:00:00 0,8 -1,3 0,0 0,3 1,8 6,3 6,2 24 13 30 16 ZZW 1022,3 26 0 0,0
18.12.2017 05:00:00 0,7 -1,3 -0,2 0,3 1,8 6,3 6,1 23 12 29 16 ZZW 1022,0 24 0 0,0
18.12.2017 04:00:00 0,8 -0,5 -0,1 0,3 1,9 6,3 6,2 21 11 27 15 Z 1021,7 14 0 0,0
18.12.2017 03:00:00 0,4 -0,7 -0,7 0,4 1,9 6,3 6,2 15 8 25 14 ZZW 1021,8 15 0 0,0
18.12.2017 02:00:00 0,6 -1,0 0,4 0,6 2,0 6,3 6,2 18 10 25 14 ZZW 1021,8 21 0 0,0
18.12.2017 01:00:00 0,5 -1,5 0,3 0,6 2,0 6,3 6,2 17 9 23 13 ZZW 1021,8 45 0 0,0
18.12.2017 00:00:00 0,6 -1,8 0,3 0,7 2,0 6,3 6,2 19 10 26 14 ZW 1021,9 64 0 0,0
17.12.2017 23:00:00 1,0 -2,0 0,5 0,9 2,1 6,4 6,2 10 5 20 11 ZZW 1021,9 70 0 0,0
17.12.2017 22:00:00 1,2 -1,0 0,9 1,0 2,1 6,4 6,2 16 9 20 11 ZW 1021,5 63 0 0,0
17.12.2017 21:00:00 1,2 -1,1 0,9 1,0 2,1 6,4 6,2 14 8 20 11 ZW 1021,3 70 0 0,0
17.12.2017 20:00:00 1,4 -1,4 1,0 0,9 2,1 6,4 6,2 17 9 20 11 WZW 1021,0 70 0 0,0
17.12.2017 19:00:00 1,1 -1,6 0,8 0,8 2,1 6,4 6,2 15 8 17 9 WZW 1020,7 70 0 0,0
17.12.2017 18:00:00 1,2 -1,5 0,6 0,7 2,2 6,4 6,2 12 7 22 12 W 1020,5 70 0 0,0
17.12.2017 17:00:00 1,5 -2,1 0,9 0,4 2,3 6,4 6,2 12 7 20 11 WNW 1020,0 70 0 0,0
17.12.2017 16:00:00 0,7 -2,1 -1,1 0,8 2,4 6,4 6,2 10 5 19 10 NW 1019,5 70 28 0,0
17.12.2017 15:00:00 1,5 -2,2 1,5 2,1 2,3 6,4 6,2 11 6 24 13 NW 1018,8 70 15 0,0
17.12.2017 14:00:00 2,0 -1,1 2,0 2,3 2,2 6,4 6,2 14 8 22 12 NNW 1018,5 70 6 0,0
17.12.2017 13:00:00 2,2 -1,3 2,2 2,0 2,0 6,4 6,2 13 7 20 11 NW 1018,1 68 0 0,0
17.12.2017 12:00:00 2,2 -0,8 2,2 1,7 1,9 6,4 6,2 10 5 19 11 NNW 1017,6 56 0 0,0
17.12.2017 11:00:00 2,3 -0,3 1,9 0,9 1,9 6,4 6,2 9 5 22 12 N 1017,0 55 30 0,0
17.12.2017 10:00:00 2,3 -0,2 1,8 0,5 1,9 6,4 6,1 11 6 29 16 NNO 1016,0 51 10 0,0
17.12.2017 09:00:00 2,1 -0,6 0,9 0,4 1,9 6,4 6,1 8 5 30 16 NNO 1015,1 70 0 0,0
17.12.2017 08:00:00 2,1 0,8 1,2 0,4 2,0 6,4 6,1 24 13 33 18 ONO 1013,7 46 0 0,0
17.12.2017 07:00:00 1,2 0,2 -0,1 0,4 2,0 6,4 6,1 14 7 31 17 NO 1012,7 70 0 0,1
17.12.2017 06:00:00 1,0 0,6 0,1 0,4 2,0 6,4 5,9 9 5 22 12 ONO 1011,8 59 0 0,0
17.12.2017 05:00:00 1,7 0,6 1,0 0,5 2,0 6,4 5,9 8 5 28 15 NO 1010,8 60 0 0,0
17.12.2017 04:00:00 1,4 0,2 0,9 0,4 2,1 6,4 6,1 22 12 30 16 NW 1010,2 54 0 0,0
17.12.2017 03:00:00 1,7 -1,1 0,7 0,4 2,1 6,4 6,3 8 4 17 9 NW 1009,7 33 0 0,0
17.12.2017 02:00:00 0,9 -1,5 0,1 0,4 2,2 6,4 6,6 15 8 39 21 WNW 1009,3 70 0 0,2
17.12.2017 01:00:00 2,7 -2,0 1,8 0,4 2,3 6,4 6,6 16 9 27 14 NW 1008,7 70 0 0,0
17.12.2017 00:00:00 2,8 -3,8 1,7 0,4 2,3 6,4 6,6 15 8 25 13 NW 1008,2 70 0 0,0
16.12.2017 23:00:00 2,6 -3,5 1,3 0,4 2,4 6,4 6,6 12 6 21 11 NNW 1007,7 70 0 0,0
16.12.2017 22:00:00 2,4 -3,3 0,4 0,4 2,6 6,4 6,6 12 7 21 11 NNW 1007,1 70 0 0,0
16.12.2017 21:00:00 2,5 -2,8 0,2 0,1 2,7 6,4 6,6 13 7 26 14 NW 1006,7 70 0 0,0
16.12.2017 20:00:00 2,6 -2,3 0,9 0,6 2,9 6,4 6,6 20 11 32 18 NW 1006,1 70 0 0,0
16.12.2017 19:00:00 3,0 -1,3 2,1 1,0 3,0 6,4 6,6 22 12 30 16 WNW 1005,6 70 0 0,0
16.12.2017 18:00:00 2,8 -1,3 1,4 1,0 3,2 6,4 6,6 22 12 30 16 WNW 1005,3 70 0 0,0
16.12.2017 17:00:00 2,5 -0,9 1,4 1,6 3,3 6,4 6,6 21 12 31 17 W 1004,8 70 0 0,0
16.12.2017 16:00:00 3,0 -0,6 1,9 2,3 3,4 6,4 6,6 17 9 28 15 WNW 1004,2 70 0 0,0
16.12.2017 15:00:00 3,2 -0,3 2,7 2,9 3,4 6,4 6,6 22 12 33 18 W 1003,4 70 28 0,0
16.12.2017 14:00:00 3,4 -0,3 3,6 3,5 3,3 6,4 6,6 24 13 34 19 W 1002,7 58 38 0,0
16.12.2017 13:00:00 3,7 -0,6 4,4 3,5 3,1 6,4 6,6 27 15 36 19 WNW 1002,2 55 48 0,0
16.12.2017 12:00:00 4,1 -0,6 5,2 3,2 3,0 6,4 6,6 24 13 36 19 WNW 1001,7 46 57 0,0
16.12.2017 11:00:00 3,7 -1,9 2,9 2,1 3,0 6,4 6,6 21 12 35 19 WNW 1001,5 70 31 0,0
16.12.2017 10:00:00 3,8 -0,8 3,5 2,1 3,1 6,4 6,6 22 12 35 19 WNW 1000,9 68 6 0,0
16.12.2017 09:00:00 3,8 -0,7 3,2 2,1 3,1 6,4 6,7 25 13 37 20 WNW 1000,3 70 0 0,0
16.12.2017 08:00:00 3,7 -0,1 2,5 2,3 3,1 6,4 6,7 28 15 37 20 W 999,6 58 0 0,0
16.12.2017 07:00:00 2,5 2,0 2,3 2,4 3,2 6,5 6,7 21 11 28 15 ZW 999,2 4,7 0 0,0
16.12.2017 06:00:00 2,3 1,9 2,0 2,4 3,2 6,5 6,7 22 12 35 19 WZW 999,1 3,9 0 0,0
16.12.2017 05:00:00 2,2 1,6 2,0 2,5 3,2 6,5 6,7 29 15 35 19 WZW 999,0 4,3 0 0,0
16.12.2017 04:00:00 2,3 1,8 2,2 2,7 3,2 6,5 6,7 26 14 35 19 WZW 998,9 3,9 0 0,0
16.12.2017 03:00:00 2,9 2,3 2,6 2,8 3,2 6,5 6,7 26 14 40 21 WZW 998,7 3,9 0 0,0
16.12.2017 02:00:00 3,3 2,5 2,9 2,8 3,2 6,5 6,7 25 13 42 23 WZW 998,5 6 0 0,0
16.12.2017 01:00:00 3,6 2,4 3,3 2,8 3,2 6,5 6,7 32 17 39 21 W 998,2 7 0 0,2
16.12.2017 00:00:00 2,9 2,0 2,5 2,8 3,1 6,5 6,7 35 19 46 25 W 998,1 2,7 0 0,2
15.12.2017 23:00:00 3,4 2,7 3,0 2,8 3,1 6,5 6,7 31 17 43 23 W 997,7 2,7 0 0,3
15.12.2017 22:00:00 3,0 2,6 2,7 2,6 3,1 6,5 6,7 26 14 35 19 WZW 997,6 4,6 0 1,2
15.12.2017 21:00:00 2,8 2,7 2,6 2,7 3,1 6,5 6,7 23 12 31 17 WZW 997,4 2,4 0 0,1
15.12.2017 20:00:00 2,6 2,5 2,5 2,6 3,1 6,5 6,7 25 14 32 17 ZW 997,0 2,4 0 0,0
15.12.2017 19:00:00 2,5 2,3 2,4 2,6 3,1 6,5 6,7 24 13 34 18 ZW 996,5 3,0 0 0,0
15.12.2017 18:00:00 2,6 2,2 2,3 2,6 3,1 6,5 6,8 25 14 32 17 ZW 996,1 4,6 0 0,0
15.12.2017 17:00:00 2,6 2,0 2,4 2,7 3,1 6,5 6,8 26 14 33 18 WZW 995,9 6 0 0,0
15.12.2017 16:00:00 2,9 2,5 2,7 2,8 3,0 6,5 6,8 21 12 31 17 WZW 995,5 6 0 0,0
15.12.2017 15:00:00 3,0 2,6 2,7 2,8 3,0 6,5 6,7 19 10 32 18 W 994,8 7 0 0,1
15.12.2017 14:00:00 2,8 1,9 2,6 2,8 2,9 6,5 6,7 22 12 34 19 WZW 994,3 3,9 0 0,1
15.12.2017 13:00:00 2,6 1,0 2,4 2,7 2,8 6,5 6,7 24 13 35 19 WZW 993,9 12 0 0,0
15.12.2017 12:00:00 2,9 0,6 2,9 2,6 2,8 6,5 6,7 27 15 33 18 WZW 993,4 14 0 0,0
15.12.2017 11:00:00 2,8 0,3 2,8 2,4 2,7 6,5 6,7 26 14 36 19 ZW 993,1 22 0 0,0
15.12.2017 10:00:00 2,8 0,2 2,8 1,8 2,7 6,5 6,7 27 15 39 21 WZW 992,8 23 21 0,0
15.12.2017 09:00:00 2,5 0,6 2,2 1,9 2,7 6,5 6,7 29 16 37 20 ZW 992,0 15 0 0,0
15.12.2017 08:00:00 2,4 0,9 2,1 1,8 2,7 6,5 6,7 27 15 38 21 ZW 991,4 12 0 0,0
15.12.2017 07:00:00 2,3 0,8 1,8 1,7 2,8 6,5 6,7 26 14 35 19 ZW 990,8 13 0 0,0
15.12.2017 06:00:00 2,0 1,0 1,2 1,8 2,8 6,5 6,7 22 12 33 18 WZW 990,5 10 0 0,0
15.12.2017 05:00:00 2,2 1,1 1,9 1,9 2,8 6,5 6,6 23 12 37 20 ZW 990,1 11 0 0,0
15.12.2017 04:00:00 2,1 0,8 1,8 1,8 2,8 6,5 6,6 27 15 43 23 ZW 989,9 15 0 0,0
15.12.2017 03:00:00 2,3 0,7 2,1 1,7 2,9 6,5 6,7 31 17 44 24 ZW 989,5 15 0 0,0
15.12.2017 02:00:00 1,9 0,8 1,4 1,9 2,9 6,5 6,7 29 16 44 24 ZW 989,1 10 0 0,0
15.12.2017 01:00:00 2,1 0,6 1,4 2,0 3,0 6,6 6,7 34 19 46 25 WZW 988,9 13 0 0,0
15.12.2017 00:00:00 2,3 1,1 2,1 2,2 3,0 6,6 6,7 35 19 48 26 ZW 988,5 11 0 0,0
14.12.2017 23:00:00 2,4 1,5 2,1 2,3 3,0 6,6 6,7 35 19 43 23 ZW 988,3 9 0 0,0
14.12.2017 22:00:00 2,5 1,7 2,3 2,3 3,0 6,6 6,7 29 16 42 23 WZW 988,0 9 0 0,0
14.12.2017 21:00:00 2,5 1,6 2,2 2,3 3,0 6,6 6,7 34 18 53 29 WZW 987,7 18 0 0,0
14.12.2017 20:00:00 2,0 1,5 1,8 2,3 3,1 6,6 6,8 36 19 47 26 WZW 987,4 10 0 0,1
14.12.2017 19:00:00 2,1 1,6 1,8 2,5 3,1 6,6 6,8 33 18 50 27 ZW 987,1 7 0 0,2
14.12.2017 18:00:00 2,5 1,6 2,1 2,6 3,1 6,6 6,9 37 20 51 27 ZW 986,8 17 0 0,0
14.12.2017 17:00:00 2,8 1,5 2,6 2,8 3,1 6,6 6,9 40 21 59 32 WZW 986,6 31 0 0,0
14.12.2017 16:00:00 3,8 1,4 3,5 3,0 3,1 6,6 6,8 40 22 58 31 WZW 985,8 50 0 0,0
14.12.2017 15:00:00 3,7 1,7 3,5 3,2 3,0 6,6 6,8 39 21 58 32 WZW 985,2 26 0 0,0
14.12.2017 14:00:00 4,1 2,1 3,9 3,3 2,9 6,6 6,8 45 25 67 36 WZW 984,4 25 0 0,0
14.12.2017 13:00:00 4,2 2,2 4,0 3,1 2,7 6,6 6,8 49 26 69 37 WZW 983,9 33 0 0,0
14.12.2017 12:00:00 4,1 2,5 4,0 3,1 2,6 6,7 6,8 44 24 72 39 WZW 983,3 20 0 0,0
14.12.2017 11:00:00 4,1 2,5 3,9 2,7 2,5 6,7 6,8 43 23 65 35 WZW 982,4 27 0 0,0
14.12.2017 10:00:00 3,6 2,6 3,4 2,1 2,5 6,7 6,7 49 26 65 35 WZW 981,2 22 0 1,1
14.12.2017 09:00:00 1,8 1,3 1,4 1,4 2,5 6,7 6,7 45 24 65 35 WZW 980,6 4,3 0 2,2
14.12.2017 08:00:00 1,4 1,1 1,2 1,3 2,5 6,7 6,7 40 22 54 29 ZW 979,8 8 0 0,3
14.12.2017 07:00:00 1,2 0,7 1,0 1,6 2,5 6,7 6,7 39 21 58 32 ZZW 980,1 8 0 0,1
14.12.2017 06:00:00 1,8 1,1 1,5 1,8 2,5 6,7 6,7 43 23 53 28 Z 980,6 16 0 0,3
14.12.2017 05:00:00 1,8 1,3 1,4 1,7 2,5 6,7 6,7 27 15 50 27 Z 982,0 4,9 0 0,7
14.12.2017 04:00:00 2,5 1,1 2,3 1,9 2,5 6,7 6,7 40 22 59 32 Z 983,3 19 0 0,0
14.12.2017 03:00:00 2,4 1,2 2,3 1,8 2,5 6,7 6,7 39 21 50 27 Z 984,8 26 0 0,0
14.12.2017 02:00:00 2,2 1,1 2,1 1,8 2,5 6,7 6,7 39 21 53 29 ZZW 986,1 25 0 0,0
14.12.2017 01:00:00 2,0 1,1 1,8 1,8 2,4 6,7 6,7 37 20 55 30 ZZW 987,2 29 0 0,0
14.12.2017 00:00:00 2,1 1,1 1,8 1,7 2,4 6,7 6,7 41 22 59 32 ZZW 988,5 28 0 0,1
13.12.2017 23:00:00 2,0 1,0 1,5 1,7 2,4 6,7 6,7 48 26 64 35 ZZW 989,6 15 0 0,0
13.12.2017 22:00:00 2,0 1,1 1,6 1,6 2,3 6,7 6,7 48 26 63 34 Z 991,1 11 0 0,1
13.12.2017 21:00:00 2,0 1,0 1,6 1,6 2,3 6,7 6,7 47 25 71 39 Z 992,5 8 0 0,0
13.12.2017 20:00:00 3,0 -0,3 2,7 1,5 2,3 6,8 6,7 50 27 70 38 Z 993,9 40 0 0,0
13.12.2017 19:00:00 3,1 -0,5 2,5 1,3 2,2 6,8 6,7 53 29 68 37 Z 995,4 32 0 0,0
13.12.2017 18:00:00 2,7 -0,8 2,3 1,0 2,3 6,8 6,7 52 28 67 36 Z 996,7 34 0 0,0
13.12.2017 17:00:00 2,4 -0,8 1,9 0,8 2,3 6,8 6,7 48 26 64 35 Z 998,1 33 0 0,0
13.12.2017 16:00:00 2,4 -0,8 1,7 0,9 2,4 6,8 6,7 50 27 65 35 Z 999,6 30 0 0,0
13.12.2017 15:00:00 2,1 -1,3 1,6 1,1 2,3 6,8 6,8 46 25 63 34 ZZW 1000,9 25 35 0,0
13.12.2017 14:00:00 2,2 -1,5 2,0 1,6 2,3 6,8 6,8 45 24 59 32 ZZW 1002,3 14 60 0,0
13.12.2017 13:00:00 2,2 -1,3 2,6 1,7 2,2 6,8 6,8 44 24 57 31 ZZW 1003,6 10 50 0,0
13.12.2017 12:00:00 1,9 -1,0 2,1 1,4 2,1 6,8 6,8 40 22 59 32 ZZW 1005,1 16 31 0,0
13.12.2017 11:00:00 1,8 -0,7 2,0 0,5 2,1 6,8 6,8 40 21 54 29 ZZW 1006,2 10 60 0,0
13.12.2017 10:00:00 1,3 -0,9 1,0 0,4 2,2 6,8 6,8 46 25 59 32 ZZW 1007,3 10 60 0,0
13.12.2017 09:00:00 1,0 -0,9 0,2 0,3 2,3 6,8 6,8 41 22 55 30 ZZW 1008,0 10 4 0,0
13.12.2017 08:00:00 0,8 -1,3 -0,1 0,5 2,3 6,8 6,8 36 19 49 26 ZW 1008,4 12 0 0,0
13.12.2017 07:00:00 1,5 -0,9 1,3 1,0 2,4 6,8 6,8 37 20 54 29 ZW 1008,8 13 0 0,0
13.12.2017 06:00:00 1,4 -0,7 1,1 0,8 2,4 6,8 6,8 41 22 56 30 ZW 1008,9 13 0 0,0
13.12.2017 05:00:00 1,1 -0,7 0,6 0,7 2,4 6,8 6,8 41 22 56 31 WZW 1009,0 12 0 0,0
13.12.2017 04:00:00 1,3 -0,3 1,1 0,9 2,5 6,8 6,8 46 25 56 31 WZW 1009,2 9 0 0,0
13.12.2017 03:00:00 1,0 0,1 0,7 0,5 2,6 6,8 6,8 33 18 46 25 WZW 1009,1 8 0 0,0
13.12.2017 02:00:00 1,1 0,2 0,7 1,1 2,6 6,8 6,8 38 20 46 25 WZW 1008,3 7 0 0,0
13.12.2017 01:00:00 1,2 0,4 1,0 1,0 2,7 6,8 6,8 35 19 46 25 WZW 1008,0 7 0 0,0
13.12.2017 00:00:00 1,5 0,3 0,6 0,8 2,8 6,8 6,8 35 19 45 24 WZW 1007,8 13 0 0,0
12.12.2017 23:00:00 2,3 -0,7 1,0 0,8 2,9 6,8 6,8 34 19 43 23 W 1007,3 50 0 0,0
12.12.2017 22:00:00 2,4 -1,1 1,6 1,3 3,0 6,9 6,8 35 19 49 26 W 1006,7 40 0 0,0
12.12.2017 21:00:00 3,0 -2,1 2,1 1,3 3,1 6,9 6,8 37 20 55 30 WNW 1005,8 44 0 0,0
12.12.2017 20:00:00 2,7 -2,2 1,7 1,7 3,2 6,9 6,9 36 19 58 31 WNW 1004,6 54 0 0,0
12.12.2017 19:00:00 2,9 -1,1 2,0 2,0 3,3 6,9 6,9 38 20 61 33 WNW 1002,9 39 0 0,0
12.12.2017 18:00:00 3,0 -0,2 1,9 2,3 3,4 6,9 6,9 41 22 60 32 WNW 1001,1 31 0 0,0
12.12.2017 17:00:00 3,4 -0,8 1,9 2,4 3,4 6,9 7,0 43 23 66 35 NW 999,4 54 0 0,5
12.12.2017 16:00:00 2,5 1,1 1,8 2,7 3,5 6,9 7,0 39 21 58 31 NW 997,7 2,3 0 0,1
12.12.2017 15:00:00 3,4 0,9 2,9 2,9 3,5 6,9 6,8 34 18 52 28 NW 995,3 34 0 0,0
12.12.2017 14:00:00 3,2 0,8 2,9 3,0 3,5 6,9 6,8 31 17 49 27 WNW 993,9 54 0 0,0
12.12.2017 13:00:00 3,1 2,0 2,7 3,2 3,5 6,9 6,8 36 20 53 29 WNW 992,3 31 0 0,0
12.12.2017 12:00:00 3,0 1,9 2,7 3,2 3,5 6,9 6,9 37 20 46 25 W 990,9 22 0 0,0

tt = temperatuur
td = dauwpunt
tt 5cm = temperatuur 5cm
tt -5cm = temperatuur -5cm
tt -20cm = temperatuur -20cm
tt -100cm = temperatuur -100cm
tw = water temperatuur
ff = windsnelheid
fx = windstoten
dd = windrichting
ppp = luchtdruk
vv = zicht
sd = Zonneschijnduur
rr = neerslag

Weerstations in de omgeving